Weather History for Mitchell, SD

Change the Weather History Date:

Wednesday, April 16, 2014

  Actual Average Record
Temperature  
Mean Temperature 38 °F 48 °F  
Max Temperature 46 °F 61 °F 92 °F (1964)
Min Temperature 30 °F 36 °F 11 °F (1907)
Degree Days  
Heating Degree Days 27 17  
Month to date heating degree days 357 328  
Since 1 July heating degree days 7353 6808  
Cooling Degree Days 0 0  
Month to date cooling degree days 0 0  
Year to date cooling degree days 0 0  
Moisture  
Dew Point 29 °F    
Average Humidity 71    
Maximum Humidity 89    
Minimum Humidity 53    
Precipitation  
Precipitation T in 0.08 in 0.94 in (1900)
Month to date precipitation 0.11 0.87  
Year to date precipitation 1.65 2.49  
Snow  
Snow T in - 7.00 in (1945)
Month to date snowfall T  
Since 1 July snowfall 30.8  
Snow Depth 0.00 in    
Sea Level Pressure  
Sea Level Pressure 29.83 in    
Wind  
Wind Speed 19 mph (NNE)    
Max Wind Speed 31 mph    
Max Gust Speed 37 mph    
Visibility 10 miles    
Events Rain , Snow    
T = Trace of Precipitation, MM = Missing Value Source: NWS Daily Summary

Daily Weather History Graph

Daily Weather History Graph

Search for Another Location

Airport:

Trip Planner

Search our weather history database for the weather conditions in past years. The results will help you decide how hot, cold, wet, or windy it might be!

Date:

Astronomy

Apr. 16, 2014 Rise Set
Actual Time 6:47 AM CDT 8:17 PM CDT
Civil Twilight 6:17 AM CDT 8:47 PM CDT
Nautical Twilight 5:41 AM CDT 9:23 PM CDT
Astronomical Twilight 5:02 AM CDT 10:02 PM CDT
Moon 10:05 PM CDT (4/16) 7:33 AM CDT (4/16)
Length of Visible Light 14h 29m
Length of Day
13h 29m
Full, 98% of the Moon is Illuminated
Apr 16
Full
Apr 22
Last Quarter
Apr 29
New
May 6
First Quarter
May 14
Full

Hourly Weather History & Observations

Time (CDT) Temp. Windchill Dew Point Humidity Pressure Visibility Wind Dir Wind Speed Gust Speed Precip Events Conditions
12:53 AM 42.1 °F 34.2 °F 28.0 °F 58% 29.64 in 10.0 mi SE 16.1 mph - N/A   Clear
1:53 AM 42.1 °F 34.2 °F 28.9 °F 60% 29.62 in 10.0 mi ESE 16.1 mph - N/A   Clear
2:53 AM 45.0 °F 37.9 °F 28.9 °F 53% 29.58 in 10.0 mi SE 16.1 mph 23.0 mph N/A   Partly Cloudy
3:53 AM 45.0 °F 38.5 °F 28.9 °F 53% 29.56 in 10.0 mi SE 13.8 mph - N/A   Mostly Cloudy
4:53 AM 44.1 °F 37.7 °F 28.9 °F 55% 29.55 in 10.0 mi ESE 12.7 mph - N/A   Mostly Cloudy
5:53 AM 44.1 °F 39.5 °F 28.9 °F 55% 29.55 in 10.0 mi East 8.1 mph - N/A   Overcast
6:53 AM 43.0 °F 36.4 °F 32.0 °F 65% 29.53 in 10.0 mi East 12.7 mph - 0.00 in   Mostly Cloudy
7:53 AM 42.1 °F 34.9 °F 34.0 °F 73% 29.57 in 10.0 mi NE 13.8 mph - 0.00 in Rain Light Rain
8:53 AM 41.0 °F 32.5 °F 34.0 °F 76% 29.62 in 10.0 mi NE 17.3 mph - 0.00 in   Overcast
9:53 AM 44.1 °F 35.9 °F 35.1 °F 71% 29.63 in 10.0 mi NE 19.6 mph - 0.00 in   Mostly Cloudy
10:53 AM 39.9 °F 29.5 °F 32.0 °F 73% 29.70 in 10.0 mi North 24.2 mph 33.4 mph N/A   Overcast
11:53 AM 36.0 °F 24.4 °F 32.0 °F 86% 29.75 in 10.0 mi North 23.0 mph 29.9 mph N/A   Overcast
12:40 PM 34.0 °F 23.4 °F 32.0 °F 92% 29.75 in 2.5 mi North 17.3 mph 27.6 mph 0.00 in Snow Light Snow
12:48 PM 33.8 °F 22.5 °F 32.0 °F 93% 29.76 in 4.0 mi North 19.6 mph - 0.00 in   Overcast
1:30 PM 35.1 °F - 30.9 °F 85% 29.80 in - North - - N/A   Unknown
1:53 PM 34.0 °F 21.3 °F 30.0 °F 85% 29.86 in 10.0 mi North 25.3 mph 32.2 mph N/A   Unknown
2:04 PM 34.0 °F 21.3 °F 30.0 °F 85% 29.83 in 10.0 mi North 25.3 mph 32.2 mph N/A   Overcast
2:22 PM 34.0 °F 21.5 °F 28.9 °F 82% 29.85 in 10.0 mi North 24.2 mph 31.1 mph N/A   Overcast
2:53 PM 34.0 °F 21.5 °F 28.9 °F 82% 29.91 in 10.0 mi North 24.2 mph 29.9 mph N/A   Overcast
3:50 PM 33.8 °F 21.0 °F 26.6 °F 75% 29.93 in 10.0 mi North 25.3 mph 34.5 mph N/A   Overcast
3:53 PM 34.0 °F 21.0 °F 27.0 °F 75% 29.96 in 10.0 mi North 26.5 mph 32.2 mph N/A   Overcast
4:53 PM 36.0 °F 23.5 °F 27.0 °F 70% 30.01 in 10.0 mi North 27.6 mph 34.5 mph N/A   Overcast
5:53 PM 35.1 °F 22.5 °F 26.1 °F 70% 30.05 in 10.0 mi North 26.5 mph 35.7 mph N/A   Overcast
6:53 PM 33.1 °F 21.2 °F 26.1 °F 75% 30.10 in 10.0 mi North 20.7 mph 31.1 mph N/A   Overcast
7:53 PM 33.1 °F 20.9 °F 26.1 °F 75% 30.13 in 10.0 mi North 21.9 mph 28.8 mph N/A   Overcast
8:53 PM 33.1 °F 21.9 °F 25.0 °F 72% 30.17 in 10.0 mi North 18.4 mph 26.5 mph N/A   Overcast
9:53 PM 32.0 °F 19.2 °F 25.0 °F 75% 30.20 in 10.0 mi North 23.0 mph 32.2 mph N/A   Overcast
10:53 PM 32.0 °F 22.1 °F 24.1 °F 73% 30.22 in 10.0 mi North 13.8 mph - N/A   Overcast
11:53 PM 32.0 °F 22.1 °F 23.0 °F 69% 30.25 in 10.0 mi North 13.8 mph - N/A   Overcast